Z-Sat
1 49399U 21102E 23278.83583625 .00007037 00000-0 48815-3 0 9998
2 49399 97.4711 328.5221 0022603 54.5444 305.7889 15.05683650104539
KOSEN 1
1 49402U 21102H 23278.83796890 .00009214 00000-0 60391-3 0 9995
2 49402 97.4640 329.2448 0021250 42.8253 317.4625 15.07729218104620
HO-113
1 50466U 21131B 23278.86591057 .00001264 00000-0 42296-3 0 9991
2 50466 98.5462 0.0476 0004712 156.5753 203.5650 14.39091867 93270
Tevel-3
1 50988U 22002E 23278.82618260 .00044452 00000-0 15036-2 0 9997
2 50988 97.4207 345.3467 0006799 193.5144 166.5915 15.30461130 95653
Tevel-8
1 50989U 22002F 23278.71932690 .00047983 00000-0 16263-2 0 9997
2 50989 97.4225 345.3108 0006767 193.0460 167.0607 15.30376771 95635
Tevel-5
1 50998U 22002Q 23278.83425730 .00046614 00000-0 15237-2 0 9992
2 50998 97.4201 345.8866 0007844 188.8560 171.2544 15.31547973 95693
Tevel-6
1 50999U 22002R 23278.83293108 .00046501 00000-0 15204-2 0 9994
2 50999 97.4200 345.8774 0007889 188.7174 171.3931 15.31540248 95699
Tevel-1
1 51013U 22002AF 23278.83978480 .00044159 00000-0 14964-2 0 9994
2 51013 97.4199 345.2829 0006715 192.8264 167.2807 15.30404554 95652
NO-116
1 51031U 22002AZ 23278.44231023 .00117305 00000-0 25463-2 0 9996
2 51031 97.4310 349.7432 0007535 190.5882 169.5208 15.43907211 95841
IRIS-A
1 51044U 22002BN 23278.43602455 .00021104 00000-0 92855-3 0 9991
2 51044 97.4224 342.3114 0007185 203.7966 156.2939 15.21865577 95417
Tevel-7
1 51062U 22002CG 23278.84934829 .00045337 00000-0 15354-2 0 9991
2 51062 97.4220 345.4113 0006783 192.1222 167.9856 15.30416765 95659
Tevel-4
1 51063U 22002CH 23278.86012429 .00045358 00000-0 15399-2 0 9999
2 51063 97.4217 345.3919 0006799 192.0221 168.0859 15.30336665 95659
Tevel-2
1 51069U 22002CP 23278.82753028 .00044472 00000-0 15038-2 0 9994
2 51069 97.4205 345.3164 0006755 193.4477 166.6585 15.30471200 95659
DELFI-PQ
1 51074U 22002CU 23278.47672565 .00146193 00000-0 25929-2 0 9990
2 51074 97.4450 353.0925 0007590 212.2634 147.8154 15.49678683 95995
SO-115
1 51080U 22002DA 23278.14380024 .00056319 00000-0 16376-2 0 9993
2 51080 97.4490 349.5339 0008715 222.6149 137.4419 15.35219316 95720
SO-114
1 51081U 22002DB 23278.18090046 .00062015 00000-0 17836-2 0 9992
2 51081 97.4479 349.5682 0008979 222.8566 137.1978 15.35533499 95735
OreSat0
1 52017U 22026K 23278.53066998 .00039436 00000-0 13674-2 0 9993
2 52017 97.5122 281.5987 0022310 59.8276 300.5170 15.29464993 86381
Planetum 1
1 52738U 22057G 23278.60583340 .00032973 00000-0 13585-2 0 9990
2 52738 97.5470 34.8482 0006052 328.7273 31.3604 15.24009668 75452
Foresail-1
1 52766U 22057AL 23278.81455029 .00021845 00000-0 95717-3 0 9990
2 52766 97.5599 35.9008 0010635 307.6968 52.3302 15.21974173 75491
SNUGLITE 2
1 52899U 22065F 23278.66810070 .00002993 00000-0 63782-3 0 9990
2 52899 98.0853 60.5594 0007040 225.2299 134.8329 14.59649625 66978
CTIM
1 52950U 22074G 23278.47816982 .00164811 00000-0 19533-2 0 9997
2 52950 44.9969 96.6005 0014948 249.7128 110.2161 15.59860793 70719
IO-117
1 53106U 22080B 23276.06829093 -.00000003 00000-0 00000-0 0 9998
2 53106 70.1395 282.2281 0008443 166.2744 193.8146 6.42557263 28682
AstroBioCubeSat
1 53107U 22080C 23025.30817895 -.00000003 00000-0 00000-0 0 9995
2 53107 70.1710 9.4734 0013545 210.3158 149.6718 6.42110537 12478
SelfieSat
1 53951U 22057BC 23278.28568988 .00044651 00000-0 16878-2 0 9997
2 53951 97.5515 35.5954 0007667 317.5403 42.5241 15.26809463 75450
FO-118
1 54684U 22167C 23278.87757371 .00024731 00000-0 12457-2 0 9990
2 54684 97.5769 56.0133 0012219 315.1353 44.8891 15.17107730 45449
SSS-2B
1 56184U 23054G 23278.86303597 .00028196 00000-0 10947-2 0 9990
2 56184 97.3932 172.4421 0010707 19.6387 340.5262 15.25996919 27039
CIRBE
1 56188U 23054L 23278.26264388 .00039344 00000-0 14655-2 0 9999
2 56188 97.3892 171.9145 0009392 16.6413 343.5132 15.27312806 26958
INSPIRE-Sat 7
1 56211U 23054AK 23278.26666255 .00043199 00000-0 15079-2 0 9999
2 56211 97.3906 172.4200 0012672 355.3643 4.7477 15.29389617 26989
RoseyCubesat 1
1 56212U 23054AL 23278.82162921 .00042581 00000-0 14594-2 0 9998
2 56212 97.3915 173.0647 0012691 353.1395 6.9670 15.29988991 27073
ARKSAT 1
1 56311U 98067VC 23278.79297598 .00395395 00000-0 16669-2 0 9998
2 56311 51.6282 125.2033 0007261 201.0758 158.9947 15.83803265 25705
AuroraSat
1 56312U 98067VD 23278.81826942 .01696374 20654-2 20341-2 0 9996
2 56312 51.6188 120.7721 0009840 245.6177 114.3809 16.08050193 25793
Ex-Alta 2
1 56313U 98067VE 23278.65193839 .00412713 00000-0 16632-2 0 9992
2 56313 51.6238 125.7286 0007458 202.5938 157.4738 15.84705920 25709
LightCube
1 56314U 98067VF 23278.78863895 .00998883 49240-3 19790-2 0 9990
2 56314 51.6208 122.0963 0008199 230.9110 129.1171 15.99350546 25791
NEUDOSE
1 56315U 98067VG 23278.77571946 .00194112 00000-0 13914-2 0 9996
2 56315 51.6298 129.6103 0006637 169.7510 190.3625 15.72528756 25647
YukonSat
1 56316U 98067VH 23278.64899432 .00265347 00000-0 14847-2 0 9991
2 56316 51.6296 127.9976 0006715 177.5543 182.5491 15.77999808 25677
URESAT-1
1 56992U 23084BU 23278.81520245 .00025712 00000-0 13828-2 0 9998
2 56992 97.5145 33.6674 0017298 194.4583 165.6157 15.14719400 17375
MRC-100
1 56993U 23084BV 23278.81191116 .00032159 00000-0 17179-2 0 9996
2 56993 97.5154 33.6815 0017298 195.1594 164.9122 15.14909533 17386
UmKA 1 (RS40S)
1 57172U 23091G 23278.89248989 .00008593 00000-0 62069-3 0 9997
2 57172 97.6525 328.6083 0016804 269.7873 90.1428 15.04211819 15078
CubeBel-2 (EU11S)
1 57175U 23091K 23278.86133823 .00009605 00000-0 70044-3 0 9994
2 57175 97.6530 328.4910 0014404 283.3383 76.6236 15.03848729 15066
